Location: ???????
(37.9857°N, 23.9821°E)
Time: 00:08:53
(UTC+00:00)

Daily predictions for brighter satellites

Satellite Brightness Start Highest point End
(mag) Time Altitude Azimuth Time Altitude Azimuth Time Altitude Azimuth
Timation 2 Rocket 4.1 00:00:44 10° NNW 00:06:40 64° ENE 00:08:44 41° SE
Cosmos 2061 Rocket 4.4 00:00:43 10° N 00:06:59 59° E 00:08:59 41° SE
Cosmos 1953 3.7 00:03:22 10° N 00:06:13 38° NE 00:06:13 38° NE
Cosmos 1980 Rocket 3.3 00:07:05 32° ESE 00:07:52 33° ESE 00:12:53 10° NE
Cosmos 1455 Rocket 3.8 00:04:43 10° N 00:08:11 50° NNE 00:08:11 50° NNE
Cosmos 2227 Rocket 2.2 00:17:00 10° NNW 00:22:41 79° ENE 00:23:59 54° SE
GP-B 4.4 00:18:47 10° NNE 00:22:49 33° E 00:23:37 31° ESE
Cosmos 2297 Rocket 2.0 00:19:44 10° NNW 00:25:24 75° WSW 00:25:29 75° WSW
In-Cosmos 22 4.4 00:26:56 52° WNW 00:26:56 52° WNW 00:32:18 10° N
Cosmos 2369 3.7 00:27:00 65° SSE 00:27:43 75° ESE 00:33:27 10° NNE
Cosmos 2278 4.4 00:28:00 38° SE 00:29:19 45° ESE 00:34:43 10° NE
SL-19 R/B 4.0 00:24:08 10° NNE 00:29:41 80° WNW 00:30:07 73° SW
Cosmos 1674 4.0 00:31:30 34° NNW 00:31:30 34° NNW 00:33:54 10° N
Cosmos 2056 Rocket 3.7 00:32:17 53° SE 00:32:57 57° ESE 00:37:57 10° NNE
Cosmos 2100 Rocket 4.3 00:27:35 10° NNW 00:33:37 48° W 00:33:57 48° W
BREEZE-M DEB (TANK) 3.3 00:32:59 47° WNW 00:34:13 62° NNW 00:46:18 10° ENE
Cosmos 1802 Rocket 3.9 00:29:28 10° NNW 00:35:32 64° W 00:36:20 58° SW
Cosmos 2123 Rocket 3.9 00:35:08 59° SW 00:36:10 70° W 00:42:22 10° N
UNK 4.2 00:38:05 49° WNW 00:38:05 49° WNW 00:41:44 10° NNW
SL-14 R/B 3.8 00:37:34 53° E 00:37:34 53° E 00:41:12 10° NNE
Cosmos 2082 4.4 00:32:31 10° NNW 00:38:06 54° ENE 00:43:40 10° SE
Cosmos 1975 Rocket 4.3 00:39:57 30° NW 00:39:57 30° NW 00:42:55 10° NNW
Cosmos 304 Rocket 3.9 00:39:25 61° WNW 00:39:25 61° WNW 00:44:07 10° N
ARGOS Delta rocket 3.7 00:36:40 10° N 00:41:23 73° WNW 00:41:37 72° WSW
SL-16 R/B 4.5 00:39:38 10° SE 00:43:07 17° E 00:46:37 10° ENE
DELTA 2 DEB (DPAF) 4.4 00:43:35 49° SE 00:44:37 67° ENE 00:49:02 10° N
Cosmos 1371 Rocket 3.9 00:44:52 65° SSW 00:45:41 87° ESE 00:50:55 10° NNE
Cosmos 1626 2.9 00:49:57 45° NNW 00:49:57 45° NNW 00:52:45 10° N
Cosmos 2251 Rocket 4.3 00:47:40 10° NW 00:51:33 35° WNW 00:51:33 35° WNW
OAO 2 Rocket 3.5 00:53:41 53° S 00:53:55 54° SSE 00:59:06 10° E
COSMOS 2455 3.7 00:50:59 10° NW 00:55:11 31° W 00:55:11 31° W
IRS-1D 3.5 00:52:09 10° N 00:57:31 82° WNW 00:59:00 49° SSW
ISS -0.7 00:56:35 10° NNW 00:58:56 17° NNE 01:01:16 10° ENE
Cosmos 614 Rocket 4.4 00:54:20 10° NNW 00:58:46 42° W 00:58:46 42° W
Cosmos 1140 Rocket 3.5 00:55:18 10° NNW 01:00:32 83° ENE 01:03:58 22° SSE
SL-16 R/B 3.0 01:00:17 38° WSW 01:00:55 39° W 01:06:44 10° NNW
IDEFIX/ARIANE 42P 2.7 00:58:05 10° NNE 01:03:22 70° ESE 01:05:39 34° S
Cosmos 1025 Rocket 3.9 01:04:24 35° WNW 01:04:24 35° WNW 01:08:13 10° N
Cosmos 1300 3.1 01:00:28 10° N 01:04:13 59° E 01:05:22 39° SE
Timation 1 Rocket 4.2 00:58:57 10° NNW 01:04:54 69° WSW 01:08:34 24° S
GRACE-FO 1 4.4 01:02:15 10° N 01:05:53 86° W 01:05:53 86° W
GRACE-FO 2 4.4 01:02:40 10° N 01:06:19 85° W 01:06:19 85° W
BREEZE-M DEB (TANK) 2.2 01:06:49 61° WNW 01:07:00 64° NW 01:09:24 10° NE
Geosat FO 4.4 01:03:53 10° NNE 01:07:21 81° WNW 01:07:26 80° W
Cosmos 1447 Rocket 4.5 01:04:24 34° S 01:07:25 86° W 01:13:48 10° N
Cosmos 2219 3.8 01:04:10 10° NW 01:09:18 36° WSW 01:09:18 36° WSW
Cosmos 2322 Rocket 4.2 01:06:12 10° SSE 01:10:31 23° E 01:14:50 10° NE
ADEOS Rocket 3.5 01:04:42 14° SSE 01:11:14 84° WSW 01:19:03 10° NNW
USA 215 4.3 01:17:22 23° W 01:17:22 23° W 01:20:48 10° WNW
Meteor 1-24 Rocket 3.7 01:12:45 30° S 01:15:36 83° E 01:21:04 10° N
Cosmos 2263 Rocket 3.7 01:13:03 10° N 01:18:18 38° ENE 01:23:32 10° SE
IRS-P3 4.2 01:16:01 10° NNE 01:21:22 78° ESE 01:24:31 25° S
ADEOS II 2.7 01:16:44 10° N 01:21:35 39° WNW 01:23:07 32° WSW
Iridium 2 4.0 01:22:40 45° W 01:22:50 46° W 01:26:31 10° N
Cosmos 1190 Rocket 3.9 01:19:29 10° NNW 01:24:42 70° WSW 01:29:01 15° S
ARIANE 5 R/B 2.8 01:19:50 10° NNE 01:24:56 65° ESE 01:28:23 20° S
CZ-2D R/B 3.9 01:24:27 10° NNW 01:27:45 17° WNW 01:29:09 15° W
USA 281 4.4 01:28:43 21° W 01:28:43 21° W 01:33:12 10° NW
Cosmos 1420 Rocket 4.0 01:26:37 34° SW 01:28:49 68° WNW 01:34:00 10° NNE
CENTAUR R/B 3.8 01:25:29 11° SSE 01:30:05 30° ESE 01:35:33 10° NE
Cosmos 1340 2.7 01:30:49 46° WSW 01:31:32 55° W 01:35:14 10° N
Cosmos 2360 Rocket 4.4 01:29:33 10° SE 01:33:30 20° E 01:37:27 10° NE
Meteor 1-28 Rocket 3.7 01:34:00 37° W 01:34:03 37° W 01:37:32 10° NNW
Meteor 2-5 Rocket 3.9 01:31:38 29° SW 01:34:19 53° WNW 01:39:50 10° N
Resurs 1-4 Rocket 4.0 01:32:03 10° NNW 01:34:33 14° WNW 01:36:01 12° W
APEX 4.3 01:30:18 10° NW 01:34:56 44° WSW 01:40:17 11° S
CZ-4B R/B 3.5 01:32:10 10° NNE 01:37:13 89° W 01:40:45 21° SSW
Cosmos 2233 Rocket 4.4 01:32:49 10° NNW 01:38:35 43° W 01:41:58 23° SSW
Lacrosse 4 Rocket 3.3 01:37:27 17° WNW 01:38:54 20° NW 01:42:12 10° N
Cosmos 1697 Rocket 4.2 01:37:11 17° W 01:39:33 21° NW 01:43:47 10° N
Atlas Centaur 2 3.7 01:38:16 20° SSW 01:41:43 29° SSE 01:47:11 10° ESE
Cosmos 1606 Rocket 3.8 01:39:11 10° N 01:43:35 73° E 01:48:01 10° SSE
Cosmos 1726 Rocket 4.2 01:39:18 10° N 01:43:37 55° E 01:47:57 10° SSE
CZ-2C R/B 4.4 01:41:44 10° NNE 01:45:27 34° E 01:49:07 10° SSE
Cosmos 2228 2.9 01:42:30 10° N 01:46:48 84° W 01:51:06 10° S
Cosmos 407 Rocket 4.3 01:42:22 10° NW 01:47:03 31° W 01:49:16 23° SW
Cosmos 676 Rocket 3.9 01:43:15 10° NNW 01:48:31 72° WSW 01:53:47 10° S
ERS-1 4.5 01:44:56 10° N 01:50:02 74° WNW 01:53:58 17° SSW
Cosmos 1980 Rocket 3.2 01:48:51 20° WSW 01:51:47 32° WNW 01:56:51 10° N
IUS-18 SRM-1 3.9 01:54:04 20° SSW 01:55:40 25° SSE 02:03:08 10° ESE
Cosmos 2227 4.5 01:53:07 10° NNW 01:58:48 73° ENE 02:04:23 10° SSE
Cosmos 292 Rocket 4.0 01:58:00 20° SW 02:01:14 56° WNW 02:06:02 10° N
SWAS 4.5 02:01:45 15° SSW 02:05:14 83° ESE 02:09:35 10° NNE
Cosmos 2227 Rocket 4.0 02:03:48 10° WNW 02:05:43 12° W 02:05:43 12° W
PAYLOAD A 3.8 02:05:21 10° NNE 02:10:04 83° ESE 02:14:45 10° SSW
Cosmos 1331 Rocket 4.3 02:07:17 10° S 02:12:22 66° ESE 02:17:31 10° NNE
Cosmos 1452 Rocket 3.8 02:08:26 16° SW 02:12:35 51° WNW 02:17:44 10° N
FENGYUN 3A 4.3 02:12:31 10° NNE 02:17:49 56° E 02:23:05 10° S
NOSS 3-2 (C) 3.6 02:15:19 10° SSW 02:20:40 63° ESE 02:26:43 10° NE
Cosmos 405 4.3 02:18:29 10° NW 02:21:14 21° W 02:23:18 13° SW
Spot 4 Rocket 4.2 02:20:09 10° N 02:25:11 55° WNW 02:30:10 10° SSW
Cosmos 2333 Rocket 4.4 02:20:51 10° SSE 02:25:21 24° ESE 02:29:52 10° NE
SL-16 R/B 2.4 02:21:08 10° SW 02:26:38 60° WNW 02:32:15 10° NNE
CZ-2C R/B 2.6 02:24:27 10° N 02:29:35 69° WNW 02:34:44 10° SSW
CZ-2D R/B 4.5 02:27:06 10° N 02:31:03 33° WNW 02:35:00 10° SW
Cosmos 1110 Rocket 4.0 02:28:08 10° SSW 02:33:18 70° WNW 02:38:28 10° NNE
ISS -3.8 02:32:42 10° NW 02:36:05 77° SW 02:39:26 10° SE
Aureole 2 Rocket 3.5 02:35:39 10° WNW 02:37:19 15° W 02:38:59 10° SW
Meteor 2-1 Rocket 4.2 02:32:44 10° N 02:38:25 82° W 02:43:58 10° S
ALOS 2.4 02:33:50 10° NNE 02:38:31 83° E 02:43:11 10° S
OAO 2 Rocket 3.6 02:33:18 10° W 02:38:33 63° S 02:43:48 10° ESE
Cosmos 1850 Rocket 4.0 02:33:53 10° NNW 02:39:12 67° WSW 02:44:28 10° S
PSLV R/B 3.5 02:37:48 10° N 02:42:00 82° WNW 02:46:13 10° SSW
IDEFIX/ARIANE 42P 4.5 02:39:34 10° NNW 02:42:18 14° WNW 02:45:03 10° W
NOSS 3-2 (A) 3.7 02:38:18 10° SW 02:43:38 50° NW 02:49:42 10° NNE
Cosmos 1346 Rocket 4.1 02:42:37 10° SW 02:45:46 23° WNW 02:48:57 10° NNW
SL-08 R/B 4.4 02:42:13 10° SSW 02:45:58 23° W 02:49:42 10° NW
Cosmos 1184 Rocket 2.7 02:44:21 10° S 02:47:31 83° W 02:50:44 10° N
Cosmos 1741 Rocket 4.1 02:44:28 10° NNW 02:49:34 55° WSW 02:54:38 10° S
